Poplar Bluff, MO

2:24 AM CDT on August 23, 2017 (GMT -0500)
Poplar Bluff Municipal

Weather History for KPOF - May, 2013

Change the Weather History Date:

Monday, May 6, 2013

  Actual Average Record
Temperature  
Mean Temperature 60 °F -  
Max Temperature 70 °F 77 °F 93 °F (2012)
Min Temperature 51 °F 53 °F 38 °F (1944)
Degree Days  
Heating Degree Days 5    
Growing Degree Days 10 (Base 50)    
Moisture  
Dew Point 53 °F    
Average Humidity 80    
Maximum Humidity 94    
Minimum Humidity 58    
Precipitation  
Precipitation 0.00 in - - ()
Sea Level Pressure  
Sea Level Pressure 29.90 in    
Wind  
Wind Speed 7 mph (North)    
Max Wind Speed 16 mph    
Max Gust Speed 21 mph    
Visibility 10 miles    
Events      
Averages and records for this station are not official NWS values.
T = Trace of Precipitation, MM = Missing Value Source: NWS Daily Summary

Daily Weather History Graph

Daily Weather History Graph

Search for Another Location

Airport or City:

Trip Planner

Search our weather history database for the weather conditions in past years. The results will help you decide how hot, cold, wet, or windy it might be!

Date:

Astronomy

May. 06, 2013 Rise Set
Actual Time 6:01 AM CDT 7:54 PM CDT
Civil Twilight 5:33 AM CDT 8:22 PM CDT
Nautical Twilight 4:59 AM CDT 8:57 PM CDT
Astronomical Twilight 4:22 AM CDT 9:33 PM CDT
Moon 3:58 AM CDT (5/6) 4:58 PM CDT (5/6)
Length of Visible Light 14h 49m
Length of Day
13h 52m
Waning Crescent, 11% of the Moon is Illuminated
May 6
Waning Crescent
May 9
New
May 17
First Quarter
May 24
Full
May 31
Last Quarter

Hourly Weather History & Observations

Time (CDT) Temp. Dew Point Humidity Pressure Visibility Wind Dir Wind Speed Gust Speed Precip Events Conditions
12:00 AM 51.8 °F 50.0 °F 94% 29.88 in 10.0 mi Calm Calm - N/A   Mostly Cloudy
12:53 AM 54.0 °F 51.1 °F 90% 29.87 in 10.0 mi NW 8.1 mph - N/A   Overcast
1:23 AM 53.6 °F 51.8 °F 94% 29.86 in 10.0 mi NW 6.9 mph - N/A   Mostly Cloudy
1:53 AM 54.0 °F 52.0 °F 93% 29.87 in 10.0 mi NW 3.5 mph - N/A   Mostly Cloudy
2:27 AM 53.6 °F 51.8 °F 94% 29.86 in 10.0 mi NW 4.6 mph - N/A   Overcast
2:53 AM 55.0 °F 52.0 °F 89% 29.87 in 10.0 mi NNW 6.9 mph - N/A   Overcast
3:38 AM 55.4 °F 53.6 °F 94% 29.86 in 10.0 mi NW 5.8 mph - N/A   Overcast
3:53 AM 55.0 °F 53.1 °F 93% 29.87 in 10.0 mi NNW 5.8 mph - N/A   Overcast
4:13 AM 55.4 °F 53.6 °F 94% 29.87 in 10.0 mi NNW 5.8 mph - N/A   Overcast
4:29 AM 55.4 °F 53.6 °F 94% 29.87 in 10.0 mi NNW 5.8 mph - N/A   Overcast
4:53 AM 55.9 °F 53.1 °F 90% 29.87 in 10.0 mi NNW 5.8 mph - N/A   Overcast
5:53 AM 55.9 °F 53.1 °F 90% 29.88 in 10.0 mi NNW 6.9 mph - N/A   Overcast
6:28 AM 55.4 °F 53.6 °F 94% 29.88 in 10.0 mi NNW 6.9 mph - N/A   Overcast
6:46 AM 55.4 °F 51.8 °F 88% 29.89 in 10.0 mi North 8.1 mph - N/A   Overcast
6:53 AM 55.9 °F 52.0 °F 87% 29.89 in 10.0 mi North 11.5 mph - N/A   Overcast
7:07 AM 55.4 °F 51.8 °F 88% 29.89 in 10.0 mi North 10.4 mph - N/A   Overcast
7:53 AM 57.0 °F 51.1 °F 81% 29.91 in 10.0 mi North 15.0 mph 20.7 mph N/A   Overcast
8:38 AM 57.2 °F 51.8 °F 82% 29.91 in 10.0 mi North 11.5 mph - N/A   Overcast
8:53 AM 59.0 °F 53.1 °F 81% 29.91 in 10.0 mi North 12.7 mph - N/A   Mostly Cloudy
9:02 AM 59.0 °F 51.8 °F 77% 29.91 in 10.0 mi North 11.5 mph 20.7 mph N/A   Mostly Cloudy
9:12 AM 59.0 °F 51.8 °F 77% 29.92 in 10.0 mi North 15.0 mph - N/A   Mostly Cloudy
9:50 AM 60.8 °F 53.6 °F 77% 29.92 in 10.0 mi North 11.5 mph 20.7 mph N/A   Overcast
9:53 AM 60.1 °F 53.1 °F 78% 29.92 in 10.0 mi North 12.7 mph - N/A   Overcast
10:53 AM 61.0 °F 53.1 °F 75% 29.93 in 10.0 mi North 13.8 mph - N/A   Overcast
11:44 AM 64.4 °F 53.6 °F 68% 29.92 in 10.0 mi North 15.0 mph - N/A   Mostly Cloudy
11:53 AM 66.0 °F 54.0 °F 65% 29.91 in 10.0 mi North 15.0 mph - N/A   Mostly Cloudy
12:53 PM 68.0 °F 53.1 °F 59% 29.90 in 10.0 mi NNE 15.0 mph 19.6 mph N/A   Overcast
1:53 PM 68.0 °F 53.1 °F 59% 29.90 in 10.0 mi North 16.1 mph - N/A   Overcast
2:53 PM 69.1 °F 54.0 °F 58% 29.89 in 10.0 mi North 11.5 mph - N/A   Mostly Cloudy
3:53 PM 66.9 °F 53.1 °F 61% 29.90 in 10.0 mi NNE 10.4 mph - N/A   Overcast
4:53 PM 68.0 °F 54.0 °F 61% 29.90 in 10.0 mi NNE 8.1 mph - N/A   Overcast
5:53 PM 68.0 °F 54.0 °F 61% 29.90 in 10.0 mi North 10.4 mph - N/A   Overcast
6:53 PM 68.0 °F 53.1 °F 59% 29.91 in 10.0 mi NNE 8.1 mph - N/A   Overcast
7:53 PM 64.9 °F 55.9 °F 73% 29.94 in 10.0 mi NE 6.9 mph - 0.00 in   Overcast
8:53 PM 64.0 °F 55.0 °F 73% 29.95 in 10.0 mi North 3.5 mph - N/A   Overcast
9:53 PM 63.0 °F 55.0 °F 75% 29.96 in 10.0 mi Calm Calm - N/A   Overcast
10:53 PM 61.0 °F 55.9 °F 83% 29.97 in 10.0 mi Calm Calm - N/A   Mostly Cloudy
11:53 PM 60.1 °F 55.0 °F 83% 29.96 in 10.0 mi Calm Calm - N/A   Mostly Cloudy